Regional Weather Roundup
Issued by NWS

Home | Current Version | Previous Version | Text Only | Print | Product List | Glossary On
Versions: 1 2 3 4 5 6 7 8 9 10 11 12 13 14 15 16 17 18 19 20 21 22 23 24 25 26 27 28 29 30 31 32 33 34 35 36 37 38 39 40 41 42 43 44 45 46 47 48 49 50
000
ASUS43 KDTX 302101
RWRMI
MICHIGAN HOURLY REGIONAL WEATHER ROUNDUP
NATIONAL WEATHER SERVICE DETROIT/PONTIAC MI
500 PM EDT SAT AUG 30 2014

NOTE: "FAIR" INDICATES FEW OR NO CLOUDS BELOW 12,000 FEET WITH NO
SIGNIFICANT WEATHER AND/OR OBSTRUCTION TO VISIBILITY.

MIZ047>049-052>055-059>063-066>070-074>076-081>083-302200-
SOUTHEAST LOWER MICHIGAN

CITY           SKY/WX    TMP DP  RH WIND       PRES   REMARKS
ADRIAN         MOSUNNY   85  67  54 SW21G31   29.91F
ALMA           PTSUNNY   76  71  84 S8        29.83R
ANN ARBOR      PTSUNNY   83  64  52 SW21G29   29.89S
BAD AXE        PTSUNNY   80  71  74 S13G20    29.83F
CARO           PTSUNNY   80  71  74 S10G18    29.83F
DETROIT CITY   PTSUNNY   86  67  52 S13       29.88F
DETROIT        PTSUNNY   86  66  51 S22G30    29.89F
FLINT          PTSUNNY   84  68  58 S13G21    29.85F
GROSSE ILE     PTSUNNY   84  70  61 S16       29.89F
HILLSDALE      MOSUNNY   85  67  55 SW13G18   29.91F
HOWELL         PTSUNNY   80  68  65 S9        29.86F

CITY           SKY/WX    TMP DP  RH WIND       PRES   REMARKS
JACKSON        MOSUNNY   84  67  56 SW13G30   29.87F
LAMBERTVILLE   MOSUNNY   84  66  54 S14G25    29.91F
LANSING        PTSUNNY   83  68  60 SW22G33   29.84F
LAPEER         FAIR      83  65  55 SW20G26   29.86F
MASON          PTSUNNY   80  70  72 S7        29.86S
MONROE         PTSUNNY   84  66  54 SW14      29.89F
MT. CLEMENS    PTSUNNY   85  66  52 SW16G25   29.86F
PONTIAC        PTSUNNY   83  66  56 SW14G24   29.87F
PORT HOPE        N/A     82  68  62 S9        29.80F
PORT HURON     PTSUNNY   82  70  65 S12G20    29.88F
TRI CITIES     CLOUDY    80  70  71 S12       29.81F
TROY           PTSUNNY   86  64  48 S16G29    29.89F
SAGINAW HB     PTSUNNY   79  70  73 S9        29.81F
$$
MIZ043>046-050>051-056>058-064>065-071>073-077>080-302200-
SOUTHWEST LOWER MICHIGAN

CITY           SKY/WX    TMP DP  RH WIND       PRES   REMARKS
BATTLE CREEK   PTSUNNY   83  68  60 SW20G30   29.86F
BENTON HARBOR  PTSUNNY   83  68  60 SW17G26   29.84S
BIG RAPIDS     CLOUDY    77  69  77 SW21G26   29.78F
COLDWATER      PTSUNNY   84  67  57 SW15G23   29.88F
FREMONT        CLOUDY    78  67  70 SW21G30   29.79F HAZE
HOLLAND        MOSUNNY   82  70  66 SW23G36   29.83F
GRAND RAPIDS   PTSUNNY   81  74  79 SW18G25   29.82F
IONIA          MOCLDY    77  73  85 SW9G16    29.82S
KALAMAZOO      PTSUNNY   83  69  62 SW15      29.86S
LUDINGTON      CLOUDY    69  68  94 SW12G20   29.78S FOG
MARSHALL       CLOUDY    82  68  62 MISG      29.86F
MOUNT PLEASANT PTSUNNY   80  71  75 SW12G17   29.80S
MUSKEGON       PTSUNNY   78  68  71 SW23G32   29.81S
SOUTH HAVEN    PTSUNNY   81  70  68 SW16G30   29.84S
$$
MIZ016>042-302200-
NORTHERN LOWER MICHIGAN

CITY           SKY/WX    TMP DP  RH WIND       PRES   REMARKS
ALPENA         LGT RAIN  76  70  82 S9        29.76F
BEAVER ISLAND  DRIZZLE   72  67  84 SW10G17   29.73F
BELLAIRE       CLOUDY    80  65  61 SW6       29.72F
CADILLAC       RAIN      72  69  90 S12G22    29.79F
CHARLEVOIX     CLOUDY    73  72  95 CALM      29.76F
FRANKFORT      CLOUDY    72  66  81 SW12G20   29.75F
GAYLORD        MOSUNNY   78  65  63 SW15G29   29.76F
GRAYLING       PTSUNNY   77  73  87 SW7       29.78S
HARBOR SPRINGS CLOUDY    72  68  88 W7        29.73F
HOUGHTON LAKE  PTSUNNY   77  67  71 SW13G23   29.78F
MANISTEE       PTSUNNY   73  66  78 SW9G17    29.77R
OSCODA         PTSUNNY   77  69  78 S9        29.79F
PELLSTON       PTSUNNY   74  70  87 W6        29.74F
ROGERS CITY    PTSUNNY   73  70  88 S8        29.75F
TRAVERSE CITY  LGT RAIN  78  66  66 SW10      29.72F
$$
MIZ007>008-015-302200-
EASTERN UPPER MICHIGAN

CITY           SKY/WX    TMP DP  RH WIND       PRES   REMARKS
KINROSS        PTSUNNY   75  70  83 SW7       29.73F
MACKINAC ISLAN CLOUDY    69  69 100 SW8G18    29.73F FOG
NEWBERRY       CLOUDY    68  67  97 SW9       29.73S FOG
S. S. MARIE    PTSUNNY   74  68  81 W7        29.72F
$$
MIZ004>006-011>014-085-302200-
CENTRAL UPPER MICHIGAN

CITY           SKY/WX    TMP DP  RH WIND       PRES   REMARKS
MANISTIQUE     LGT RAIN  66  66  99 N3        29.73S
ESCANABA       CLOUDY    63  59  88 N9G16     29.74R
MENOMINEE      CLOUDY    72  64  78 N5        29.73S
SAWYER-GWINN   CLOUDY    61  59  94 N10G16    29.78S
$$
MIZ001>003-009>011-084-302200-
WESTERN UPPER MICHIGAN

CITY           SKY/WX    TMP DP  RH WIND       PRES   REMARKS
IRON MOUNTAIN  CLOUDY    65  62  90 N12       29.78R
HOUGHTON       CLOUDY    60  55  83 VRB7      29.84S
COPPER HARBOR    N/A     57  54  89 N12       29.81F
$$

ABBREVIATIONS USED IN REMARKS
   TC - TEMPERATURE IN CELSIUS
  WCI - WIND CHILL INDEX
   HX - HEAT INDEX
  VSB - VISIBILITY




USA.gov is the U.S. government's official web portal to all federal, state and local government web resources and services.